Location: Harbor Island
(32.3990°N, 80.4435°W)
Time: 09:42:25
(UTC-05:00)

Daily predictions for brighter satellites

Satellite Brightness Start Highest point End
(mag) Time Altitude Azimuth Time Altitude Azimuth Time Altitude Azimuth
SKYMED 2 3.7 18:05:49 10° NNE 18:10:05 54° E 18:14:19 10° S
CZ-4 R/B 4.4 18:06:22 10° SSE 18:10:29 72° ENE 18:14:36 10° N
Meteor 1-11 4.3 18:05:40 10° S 18:11:19 84° E 18:17:06 10° N
Cosmos 1626 2.9 18:08:32 10° SSE 18:11:52 31° E 18:15:11 10° NNE
Aureole 1 Rocket 4.4 18:09:16 10° SSE 18:13:46 33° E 18:19:29 10° NE
Sich 1 3.8 18:11:49 10° SSE 18:15:44 31° E 18:19:40 10° NNE
Cosmos 2219 Rocket 4.4 18:12:30 10° WSW 18:16:53 23° WNW 18:21:16 10° N
CZ-2C R/B 3.5 18:12:56 10° S 18:17:48 52° W 18:22:31 10° NNW
Cosmos 1356 Rocket 3.7 18:15:20 10° SSE 18:19:04 40° E 18:22:49 10° NNE
Lacrosse 5 rocket 1.2 18:18:23 10° NNW 18:22:13 65° NE 18:26:14 10° SE
ALOS 4.0 18:20:50 10° E 18:22:31 12° ENE 18:24:11 10° NE
Cosmos 2333 Rocket 4.2 18:19:01 10° WSW 18:23:40 26° WNW 18:28:21 10° N
Cosmos 1633 Rocket 3.6 18:22:02 10° SSE 18:26:04 36° E 18:30:05 10° NNE
MSX 4.3 18:24:25 10° S 18:30:05 68° WSW 18:35:48 10° NNW
Delta 2 Rocket 4.4 18:27:34 10° SSW 18:30:16 22° SSE 18:32:39 12° E
Cosmos 1726 3.5 18:27:09 10° NNW 18:30:45 44° W 18:34:21 10° SSW
Coronas F rocket 2.2 18:30:20 10° SSE 18:32:20 23° E 18:33:36 15° NE
Cosmos 2278 Rocket 2.9 18:30:27 10° NNW 18:36:02 60° WSW 18:41:35 10° S
FAST Rocket 3.8 18:34:05 10° S 18:36:45 62° E 18:39:25 10° NNE
Cosmos 1455 2.8 18:34:57 10° NNE 18:38:27 34° E 18:41:56 10° SSE
USA 229 DEB 3.7 18:32:29 10° SSW 18:39:17 72° ESE 18:46:10 10° NE
USA 229 3.7 18:32:35 10° SSW 18:39:22 72° ESE 18:46:16 10° NE
Timation 1 Rocket 4.3 18:36:25 10° NNW 18:42:27 76° ENE 18:48:26 10° SSE
Cosmos 1703 3.7 18:38:48 10° SSW 18:42:39 66° W 18:46:31 10° N
Cosmos 1184 Rocket 2.7 18:40:50 10° S 18:44:08 68° E 18:47:28 10° NNE
CZ-4 R/B 4.5 18:42:34 10° SW 18:45:13 18° W 18:47:54 10° NW
SJ-6B 3.5 18:43:03 10° SE 18:46:45 35° ENE 18:50:32 10° N
Iridium 4 Rocket 3.5 18:46:44 10° SSE 18:50:57 38° E 18:54:55 10° NNE
Cosmos 1707 Rocket 3.4 18:52:07 10° N 18:56:27 87° E 19:00:48 10° S
COSMO-SKYMED 1 4.1 18:54:01 10° N 18:58:01 37° WNW 19:02:00 10° SW
OTV 4 3.3 18:56:06 10° WSW 18:58:03 16° SW 18:59:59 10° S
Cosmos 1666 Rocket 4.0 18:57:51 10° SSW 19:02:07 61° W 19:06:28 10° N
SL-16 R/B 3.6 18:58:10 10° SW 19:03:22 38° WNW 19:08:36 10° N
Cosmos 2369 Rocket 4.2 19:00:39 10° NNE 19:01:00 11° NNE 19:01:00 11° NNE
H-2A ROCKET BODY 3.6 18:34:24 10° W 19:05:16 72° S 19:09:18 23° ESE
FREGAT/IRIS 2.6 19:02:24 10° SSE 19:05:24 58° ENE 19:08:25 10° N
Haruka 3.8 19:03:42 10° W 19:07:56 83° S 19:16:07 22° E
Resurs 01 Rocket 2.2 19:07:52 10° SE 19:12:15 35° ENE 19:15:59 10° N
Cosmos 923 Rocket 3.9 19:06:44 10° SSW 19:11:56 87° ESE 19:17:00 11° NNE
Cosmos 1933 Rocket 3.6 19:09:19 10° S 19:13:39 58° E 19:16:31 21° NNE
ORS 1 (USA 231) 4.5 19:15:02 10° WNW 19:18:13 82° SSW 19:18:21 78° SSE
Cosmos 1680 Rocket 3.4 19:13:11 10° S 19:18:22 75° ESE 19:22:05 20° NNE
Cosmos 1655 Rocket 4.3 19:13:57 10° SSE 19:19:54 43° E 19:24:06 19° NNE
Cosmos 2297 4.5 19:15:34 10° NNW 19:21:07 54° WSW 19:26:40 10° S
Cosmos 1627 Rocket 4.4 19:16:10 10° S 19:22:15 61° E 19:28:17 10° NNE
TIMED 4.4 19:18:34 10° N 19:22:56 66° ENE 19:26:16 16° SSE
OAO 1 4.4 19:19:50 10° WSW 19:25:18 84° SSE 19:26:59 46° E
Lacrosse 4 Rocket 1.8 19:22:15 10° NNW 19:25:16 42° NNE 19:25:16 42° NNE
Genesis I 3.4 19:23:25 10° SSW 19:26:49 52° SE 19:26:49 52° SE
FENGYUN 3A 3.6 19:22:56 10° SSE 19:28:11 61° ENE 19:33:29 10° N
METEOR-M 4.5 19:23:10 10° S 19:28:28 66° WSW 19:33:48 10° NNW
Tiangong 1 2.3 19:26:21 10° W 19:28:39 36° NW 19:28:39 36° NW
Helios 1B rocket 3.9 19:31:28 24° SSE 19:31:28 24° SSE 19:33:21 10° S
NOSS 3-1 (C) 3.2 19:25:28 10° SSW 19:31:01 63° ESE 19:32:51 43° NE
Intelsat 5-1 Rocket 3.9 19:30:28 10° SW 19:32:45 18° S 19:33:48 17° SSE
Cosmos 1869 3.5 19:28:45 10° N 19:32:47 72° W 19:36:48 10° S
Cosmos 1470 Rocket 3.8 19:30:51 10° SSW 19:35:11 67° W 19:38:13 19° N
Milstar 3 4.2 19:31:40 10° W 19:37:20 30° SSW 19:43:40 11° SE
Cosmos 1943 3.1 19:35:32 10° S 19:41:07 66° ESE 19:41:55 59° ENE
USA 215 3.4 19:40:52 47° ENE 19:42:04 52° NE 19:48:22 10° NNW
Cosmos 2026 Rocket 3.9 19:43:07 10° S 19:49:21 88° W 19:55:31 10° N
ATLAS 2A CENTAUR R/B 3.3 19:49:51 10° SSW 19:51:15 22° S 19:51:15 22° S
ALOS 2.8 19:54:51 10° S 19:59:25 56° W 20:04:00 10° NNW
Resurs 01 Rocket 4.5 20:45:46 10° SW 20:49:47 14° WNW 20:51:08 10° WNW
